Regional Weather Roundup
Issued by NWS

Home | Current Version | Previous Version | Graphics & Text | Print | Product List | Glossary Off
Versions: 1 2 3 4 5 6 7 8 9 10 11 12 13 14 15 16 17 18 19 20 21 22 23 24 25 26 27 28 29 30 31 32 33 34 35 36 37 38 39 40 41 42 43 44 45 46 47 48 49 50

000
ASUS44 KEWX 290611
RWRTX
SOUTH TEXAS REGIONAL WEATHER ROUNDUP
NATIONAL WEATHER SERVICE AUSTIN/SAN ANTONIO TX
100 AM CDT SUN MAR 29 2015

NOTE: "FAIR" INDICATED FEW OR NO CLOUDS BELOW 12,000 FEET WITH NO
SIGNIFICANT WEATHER AND/OR OBSTRUCTIONS TO VISIBILITY.

* - THESE STATIONS ARE NOT NWS OR FAA STATIONS...AND ARE NOT SUBJECT
    TO NWS AND FAA QUALITY CONTROL.

TXZ171-172-183>190-290700-
TEXAS HILL COUNTRY AND EDWARDS PLATEAU

CITY           SKY/WX    TMP DP  RH WIND       PRES   REMARKS
JUNCTION       FAIR      64  37  36 S3        30.06R
6HR MIN TEMP:  64; 6HR MAX TEMP:  82;

*LLANO         CLEAR     64  43  45 S3        30.08S
BURNET         CLEAR     64  47  53 S9        30.08S
6HR MIN TEMP:  63; 6HR MAX TEMP:  81;

*HORSESHOE BAY CLEAR     67  51  56 S3        30.05S
6HR MIN TEMP:  67; 6HR MAX TEMP:  82;

*KERRVILLE     CLEAR     60  49  67 SE10      30.10S
6HR MIN TEMP:  60; 6HR MAX TEMP:  76;

*FREDERICKSBRG CLEAR     63  43  47 CALM      30.08F
6HR MIN TEMP:  60; 6HR MAX TEMP:  76;

*ROCKSPRINGS   FAIR      64  37  36 S13       30.11F
*BOERNE STAGE  CLEAR     61  50  67 S9        30.11S
*CASTROVILLE   CLEAR     60  52  75 SE6       30.10F
HONDO          CLEAR     58  47  66 SE6       30.11S
6HR MIN TEMP:  56; 6HR MAX TEMP:  80;

*UVALDE        NOT AVBL
DEL RIO        FAIR      66  44  45 SE8       30.03S
6HR MIN TEMP:  66; 6HR MAX TEMP:  86;

LAUGHLIN AFB   FAIR      62  47  56 SE5       30.04F
6HR MIN TEMP:  62; 6HR MAX TEMP:  84;

CARRIZO SPRGS  CLEAR     59  46  63 SE3       30.05S
$$

TXZ173-191>194-202-209-217>225-228-290700-
CENTRAL AND SOUTH CENTRAL TEXAS

CITY           SKY/WX    TMP DP  RH WIND       PRES   REMARKS
GEORGETOWN     CLEAR     64  48  55 S14       30.05S
6HR MIN TEMP:  64; 6HR MAX TEMP:  81;

AUSTIN/BERGSTM CLEAR     54  49  83 S7        30.07F
6HR MIN TEMP:  54; 6HR MAX TEMP:  77;

AUSTIN/MABRY   CLEAR     63  50  62 S7        30.08S
6HR MIN TEMP:  63; 6HR MAX TEMP:  79;

*AUSTIN/EXEC     N/A     59  50  72 S8        30.08S
*LAGO VISTA    CLEAR     63  49  60 S6        30.07F
6HR MIN TEMP:  63; 6HR MAX TEMP:  80;

SAN MARCOS     CLEAR     57  48  72 SW7       30.10S
6HR MIN TEMP:  57; 6HR MAX TEMP:  79;

NEW BRAUNFELS  CLEAR     60  54  80 S9        30.08R
6HR MIN TEMP:  60; 6HR MAX TEMP:  80;

RANDOLPH AFB   CLEAR     61  54  76 S8        30.09S
6HR MIN TEMP:  61; 6HR MAX TEMP:  79;

PT SAN ANTONIO CLEAR     60  53  77 S8        30.08S
6HR MIN TEMP:  58; 6HR MAX TEMP:  76;

SAN ANTONIO    CLEAR     66  52  60 S14       30.10S
6HR MIN TEMP:  65; 6HR MAX TEMP:  80;

STINSON FIELD  CLEAR     61  54  77 S7        30.08S
6HR MIN TEMP:  61; 6HR MAX TEMP:  80;

*PLEASANTON    CLEAR     61  54  79 SE5       30.11R
6HR MIN TEMP:  61; 6HR MAX TEMP:  81;

*LA GRANGE     CLEAR     63  55  75 S9        30.08R
6HR MIN TEMP:  63; 6HR MAX TEMP:  78;

*GIDDINGS      CLEAR     60  48  63 S8        30.12S
6HR MIN TEMP:  60; 6HR MAX TEMP:  78;

*GONZALES      CLEAR     59  53  80 S5        30.10R
6HR MIN TEMP:  59; 6HR MAX TEMP:  78;

$$

TXZ163>164-176>182-195>201-210>213-226-227-235-290700-
SOUTHEAST TEXAS

CITY           SKY/WX    TMP DP  RH WIND       PRES   REMARKS
COLLEGE STN    CLEAR     60  45  57 S7        30.08S
6HR MIN TEMP:  59; 6HR MAX TEMP:  79;

*BRYAN         CLEAR     61  46  56 S7        30.09S
6HR MIN TEMP:  61; 6HR MAX TEMP:  77;

*CALDWELL      CLEAR     61  45  55 S8        30.10S
*CROCKETT      CLEAR     64  46  52 S6        30.13R
*BRENHAM       CLEAR     64  52  65 S8        30.10S
6HR MIN TEMP:  64; 6HR MAX TEMP:  80;

HUNTSVILLE     CLEAR     63  50  62 S12       30.10R
6HR MIN TEMP:  63; 6HR MAX TEMP:  78;

CONROE         CLEAR     54  46  74 CALM      30.11S
6HR MIN TEMP:  54; 6HR MAX TEMP:  78;

HOUSTON BUSH   CLEAR     64  59  83 S8        30.11S
6HR MIN TEMP:  63; 6HR MAX TEMP:  78;

HOUSTON HOBBY  CLEAR     62  61  96 S8        30.11F
6HR MIN TEMP:  61; 6HR MAX TEMP:  76;

*HOUSTON SW AP CLEAR     62  62 100 SE3       30.13S FOG
6HR MIN TEMP:  62; 6HR MAX TEMP:  80;

PEARLAND       CLEAR     64  61  90 S6        30.13F
6HR MIN TEMP:  63; 6HR MAX TEMP:  76;

HOUSTON HOOKS  CLEAR     64  58  80 S8        30.11R
6HR MIN TEMP:  63; 6HR MAX TEMP:  78;

ELLINGTON FLD  CLEAR     64  61  88 S5        30.13F
SUGAR LAND     CLEAR     62  59  90 S8        30.11S
6HR MIN TEMP:  61; 6HR MAX TEMP:  74;

*HOUSTON EXEC  CLEAR     55  55 100 S8        30.12S
*CLEVELAND MUN CLEAR     52  51  95 CALM      30.13R
6HR MIN TEMP:  52; 6HR MAX TEMP:  78;

*WHARTON       CLEAR     59  58  97 S6        30.12S
6HR MIN TEMP:  59; 6HR MAX TEMP:  72;

*COLUMBUS      FAIR      62  58  87 S12       30.10S
6HR MIN TEMP:  61; 6HR MAX TEMP:  75;

$$

TXZ214>216-236>238-290700-
THE UPPER TEXAS COAST

CITY           SKY/WX    TMP DP  RH WIND       PRES   REMARKS
*ORANGE        CLEAR     62  59  91 SE3       30.17S
6HR MIN TEMP:  62; 6HR MAX TEMP:  69;

PORT ARTHUR    CLEAR     60  59  96 E6        30.14S
6HR MIN TEMP:  60; 6HR MAX TEMP:  74;

GALVESTON      CLEAR     65  64  97 S13       30.14S
6HR MIN TEMP:  64; 6HR MAX TEMP:  67;

ANGLETON       CLEAR     62  61  96 S9        30.12F
6HR MIN TEMP:  58; 6HR MAX TEMP:  70;

*BAY CITY      CLEAR     60  60 100 S5        30.12F
PALACIOS       CLEAR     68  63  84 S14       30.12S
6HR MIN TEMP:  68; 6HR MAX TEMP:  71;

$$

TXZ229>234-239>247-290700-
TEXAS COASTAL BEND AND RIO GRANDE PLAINS

CITY           SKY/WX    TMP DP  RH WIND       PRES   REMARKS
VICTORIA       CLEAR     63  60  90 S12       30.12S
6HR MIN TEMP:  63; 6HR MAX TEMP:  74;

*BEEVILLE      CLEAR     62  61  94 S14       30.11S
6HR MIN TEMP:  62; 6HR MAX TEMP:  75;

ROCKPORT       CLEAR     67  60  78 S10G22    30.12F
6HR MIN TEMP:  67; 6HR MAX TEMP:  71;

*PORT ARANSAS  CLEAR     65  63  91 S14       30.13S
6HR MIN TEMP:  65; 6HR MAX TEMP:  68;

*PORT LAVACA   CLEAR     64  61  88 S13       30.12F
6HR MIN TEMP:  64; 6HR MAX TEMP:  71;

*INGLESIDE     CLEAR     67  63  84 S16G22    30.13S
CORPUS CHRISTI CLEAR     62  59  90 S12       30.12F
6HR MIN TEMP:  62; 6HR MAX TEMP:  73;

CORPUS NAS     CLEAR     66  63  90 S15G21    30.13S
6HR MIN TEMP:  66; 6HR MAX TEMP:  70;

*ROBSTOWN      CLEAR     64  60  88 MISG      30.12F
6HR MIN TEMP:  64; 6HR MAX TEMP:  77;

ALICE          CLEAR     62  57  83 S12       30.11S
6HR MIN TEMP:  61; 6HR MAX TEMP:  81;

KINGSVILLE NAS CLEAR     63  60  90 S14       30.12F
6HR MIN TEMP:  63; 6HR MAX TEMP:  78;

COTULLA        CLEAR     63  46  54 SE10      30.07F
6HR MIN TEMP:  63; 6HR MAX TEMP:  85;

*FAITH RANCH   CLEAR     68  46  45 S14       30.05S
LAREDO         CLEAR     65  50  58 SE10      30.09S
6HR MIN TEMP:  65; 6HR MAX TEMP:  84;

$$

TXZ248>255-290700-
DEEP SOUTH TEXAS

CITY           SKY/WX    TMP DP  RH WIND       PRES   REMARKS
BROWNSVILLE    CLEAR     64  61  90 S9        30.16F
6HR MIN TEMP:  63; 6HR MAX TEMP:  72;

PORT ISABEL    CLEAR     65  61  87 S10       30.14F
6HR MIN TEMP:  64; 6HR MAX TEMP:  72;

*SOUTH PADRE   PTCLDY    66  64  94 SW12      30.16F



USA.gov is the U.S. government's official web portal to all federal, state and local government web resources and services.